When you browse on this site, cookies collect data to enhance your experience and personalize the content and advertising you see.
Visit our Privacy Policy to learn more. By continuing to use the site, you agree to this use of cookies and data.
  • In United Kingdom
  • List of Countries
  • For 7 days
  • Water Temperature
  • Satellite Maps
  • Weather Map
  • Weather Widgets
  • user-avatar
    Login

    Hourly Weather Swansea

    Today, 23 April, Tuesday

    Time Temperature Precipitation Wind Pressure Humidity
    00:00 +11°C° 0 mm 3 mps 748 mmHg 85%
    01:00 +12°C° 0.1 mm 3 mps 748 mmHg 83%
    02:00 +12°C° 0.1 mm 3 mps 747 mmHg 81%
    03:00 +12°C° 0.1 mm 3 mps 747 mmHg 80%
    04:00 +12°C° 0.1 mm 3 mps 747 mmHg 81%
    05:00 +12°C° 0.1 mm 4 mps 746 mmHg 82%
    06:00 +12°C° 0.1 mm 4 mps 746 mmHg 82%
    07:00 +13°C° 0 mm 5 mps 746 mmHg 78%
    08:00 +15°C° 0 mm 5 mps 746 mmHg 74%
    09:00 +17°C° 0 mm 6 mps 746 mmHg 69%
    10:00 +19°C° 0 mm 6 mps 745 mmHg 67%
    11:00 +20°C° 0 mm 6 mps 745 mmHg 64%
    12:00 +21°C° 0 mm 5 mps 745 mmHg 62%
    13:00 +21°C° 0.5 mm 5 mps 745 mmHg 64%
    14:00 +21°C° 0.5 mm 5 mps 744 mmHg 67%
    15:00 +21°C° 0.5 mm 5 mps 744 mmHg 69%
    16:00 +20°C° 0.3 mm 5 mps 744 mmHg 73%
    17:00 +20°C° 0.3 mm 4 mps 744 mmHg 77%
    18:00 +19°C° 0.3 mm 4 mps 744 mmHg 80%
    19:00 +18°C° 0.4 mm 3 mps 744 mmHg 84%
    20:00 +16°C° 0.4 mm 3 mps 744 mmHg 89%
    21:00 +14°C° 0.4 mm 3 mps 744 mmHg 93%
    22:00 +13°C° 0 mm 3 mps 743 mmHg 93%
    23:00 +13°C° 0 mm 4 mps 743 mmHg 94%

    Tomorrow, 24 April, Wednesday

    Time Temperature Precipitation Wind Pressure Humidity
    00:00 +13°C° 0 mm 4 mps 743 mmHg 95%
    01:00 +12°C° 0 mm 4 mps 743 mmHg 94%
    02:00 +12°C° 0 mm 4 mps 742 mmHg 94%
    03:00 +11°C° 0 mm 4 mps 742 mmHg 94%
    04:00 +11°C° 0.1 mm 4 mps 741 mmHg 93%
    05:00 +11°C° 0.1 mm 4 mps 741 mmHg 93%
    06:00 +11°C° 0.1 mm 4 mps 740 mmHg 93%
    07:00 +11°C° 1.7 mm 4 mps 740 mmHg 93%
    08:00 +12°C° 1.7 mm 4 mps 740 mmHg 94%
    09:00 +12°C° 1.7 mm 4 mps 740 mmHg 94%
    10:00 +10°C° 3.7 mm 5 mps 740 mmHg 95%
    11:00 +10°C° 3.7 mm 6 mps 740 mmHg 95%
    12:00 +9°C° 3.7 mm 7 mps 740 mmHg 95%
    13:00 +10°C° 0.4 mm 6 mps 740 mmHg 91%
    14:00 +12°C° 0.4 mm 5 mps 741 mmHg 87%
    15:00 +13°C° 0.4 mm 5 mps 741 mmHg 83%
    16:00 +12°C° 0.9 mm 5 mps 742 mmHg 86%
    17:00 +11°C° 0.9 mm 4 mps 742 mmHg 89%
    18:00 +10°C° 0.9 mm 4 mps 742 mmHg 92%
    19:00 +9°C° 0.1 mm 5 mps 743 mmHg 92%
    20:00 +8°C° 0.1 mm 5 mps 743 mmHg 92%
    21:00 +8°C° 0.1 mm 5 mps 743 mmHg 92%
    22:00 +7°C° 0 mm 6 mps 743 mmHg 92%
    23:00 +7°C° 0 mm 6 mps 743 mmHg 92%

    Day after tomorrow, 25 April, Thursday

    Time Temperature Precipitation Wind Pressure Humidity
    00:00 +6°C° 0 mm 7 mps 742 mmHg 92%
    01:00 +6°C° 0.7 mm 7 mps 742 mmHg 93%
    02:00 +6°C° 0.7 mm 7 mps 742 mmHg 94%
    03:00 +8°C° 0.7 mm 7 mps 741 mmHg 95%
    04:00 +8°C° 0.3 mm 6 mps 741 mmHg 94%
    05:00 +8°C° 0.3 mm 6 mps 742 mmHg 93%
    06:00 +8°C° 0.3 mm 5 mps 742 mmHg 92%
    07:00 +8°C° 0.2 mm 5 mps 742 mmHg 88%
    08:00 +9°C° 0.2 mm 6 mps 743 mmHg 84%
    09:00 +10°C° 0.2 mm 6 mps 743 mmHg 80%
    10:00 +10°C° 0.4 mm 6 mps 744 mmHg 78%
    11:00 +11°C° 0.4 mm 6 mps 744 mmHg 75%
    12:00 +11°C° 0.4 mm 6 mps 745 mmHg 73%
    13:00 +11°C° 0.3 mm 6 mps 745 mmHg 72%
    14:00 +12°C° 0.3 mm 5 mps 744 mmHg 71%
    15:00 +12°C° 0.3 mm 5 mps 744 mmHg 70%
    16:00 +11°C° 0.2 mm 6 mps 744 mmHg 73%
    17:00 +10°C° 0.2 mm 7 mps 744 mmHg 76%
    18:00 +8°C° 0.2 mm 9 mps 744 mmHg 79%
    19:00 +8°C° 1.7 mm 9 mps 744 mmHg 84%
    20:00 +7°C° 1.7 mm 9 mps 744 mmHg 88%
    21:00 +6°C° 1.7 mm 9 mps 744 mmHg 93%
    22:00 +7°C° 0.1 mm 9 mps 744 mmHg 92%
    23:00 +7°C° 0.1 mm 9 mps 744 mmHg 91%

    26 April, Friday

    Time Temperature Precipitation Wind Pressure Humidity
    00:00 +7°C° 0.1 mm 8 mps 744 mmHg 89%
    01:00 +8°C° 0.3 mm 7 mps 744 mmHg 91%
    02:00 +8°C° 0.3 mm 6 mps 745 mmHg 92%
    03:00 +8°C° 0.3 mm 5 mps 745 mmHg 93%
    04:00 +8°C° 0.2 mm 7 mps 746 mmHg 93%
    05:00 +7°C° 0.2 mm 8 mps 746 mmHg 93%
    06:00 +6°C° 0.2 mm 9 mps 747 mmHg 93%
    07:00 +7°C° 0.2 mm 9 mps 748 mmHg 90%
    08:00 +8°C° 0.2 mm 9 mps 749 mmHg 87%
    09:00 +10°C° 0.2 mm 9 mps 749 mmHg 85%
    10:00 +11°C° 0 mm 8 mps 750 mmHg 79%
    11:00 +12°C° 0 mm 8 mps 751 mmHg 72%
    12:00 +12°C° 0 mm 8 mps 751 mmHg 66%
    13:00 +12°C° 0.1 mm 8 mps 752 mmHg 69%
    14:00 +12°C° 0.1 mm 8 mps 753 mmHg 73%
    15:00 +12°C° 0.1 mm 9 mps 754 mmHg 76%
    16:00 +11°C° 0.1 mm 9 mps 754 mmHg 79%
    17:00 +8°C° 0.1 mm 9 mps 755 mmHg 82%
    18:00 +7°C° 0.1 mm 9 mps 756 mmHg 85%
    19:00 +7°C° 0 mm 8 mps 757 mmHg 83%
    20:00 +6°C° 0 mm 8 mps 759 mmHg 81%
    21:00 +6°C° 0 mm 7 mps 760 mmHg 78%
    22:00 +5°C° 0 mm 6 mps 760 mmHg 79%
    23:00 +5°C° 0 mm 6 mps 761 mmHg 80%

    27 April, Saturday

    Time Temperature Precipitation Wind Pressure Humidity
    00:00 +5°C° 0 mm 5 mps 761 mmHg 81%
    01:00 +5°C° 0 mm 4 mps 761 mmHg 82%
    02:00 +5°C° 0 mm 4 mps 762 mmHg 83%
    03:00 +5°C° 0 mm 3 mps 762 mmHg 85%
    04:00 +6°C° 0.2 mm 2 mps 762 mmHg 86%
    05:00 +8°C° 0.2 mm 1 mps 762 mmHg 88%
    06:00 +7°C° 0.2 mm 0 mps 762 mmHg 89%
    07:00 +8°C° 0 mm 0 mps 763 mmHg 85%
    08:00 +10°C° 0 mm 1 mps 763 mmHg 81%
    09:00 +11°C° 0 mm 1 mps 764 mmHg 77%
    10:00 +12°C° 0 mm 2 mps 764 mmHg 75%
    11:00 +12°C° 0 mm 3 mps 764 mmHg 73%
    12:00 +12°C° 0 mm 4 mps 765 mmHg 71%
    13:00 +12°C° 0 mm 4 mps 765 mmHg 72%
    14:00 +12°C° 0 mm 5 mps 765 mmHg 72%
    15:00 +11°C° 0 mm 6 mps 766 mmHg 73%
    16:00 +12°C° 0 mm 5 mps 766 mmHg 74%
    17:00 +10°C° 0 mm 5 mps 766 mmHg 75%
    18:00 +9°C° 0 mm 5 mps 767 mmHg 76%
    19:00 +8°C° 0 mm 5 mps 767 mmHg 80%
    20:00 +7°C° 0 mm 4 mps 768 mmHg 84%
    21:00 +7°C° 0 mm 3 mps 768 mmHg 89%
    22:00 +6°C° 0 mm 4 mps 768 mmHg 88%
    23:00 +6°C° 0 mm 4 mps 768 mmHg 88%

    28 April, Sunday

    Time Temperature Precipitation Wind Pressure Humidity
    00:00 +6°C° 0 mm 4 mps 768 mmHg 88%
    01:00 +6°C° 0 mm 4 mps 768 mmHg 90%
    02:00 +7°C° 0 mm 4 mps 768 mmHg 91%
    03:00 +7°C° 0 mm 4 mps 767 mmHg 92%
    04:00 +7°C° 0 mm 4 mps 767 mmHg 93%
    05:00 +8°C° 0 mm 5 mps 767 mmHg 93%
    06:00 +8°C° 0 mm 5 mps 767 mmHg 93%
    07:00 +9°C° 0 mm 5 mps 767 mmHg 89%
    08:00 +10°C° 0 mm 5 mps 767 mmHg 85%
    09:00 +13°C° 0 mm 6 mps 767 mmHg 81%
    10:00 +13°C° 0 mm 6 mps 767 mmHg 78%
    11:00 +14°C° 0 mm 6 mps 767 mmHg 75%
    12:00 +14°C° 0 mm 6 mps 766 mmHg 72%
    13:00 +14°C° 0 mm 5 mps 766 mmHg 72%
    14:00 +14°C° 0 mm 5 mps 766 mmHg 71%
    15:00 +15°C° 0 mm 5 mps 765 mmHg 70%
    16:00 +14°C° 0 mm 5 mps 765 mmHg 74%
    17:00 +13°C° 0 mm 4 mps 764 mmHg 77%
    18:00 +13°C° 0 mm 4 mps 764 mmHg 80%
    19:00 +12°C° 0 mm 4 mps 764 mmHg 85%
    20:00 +11°C° 0 mm 3 mps 764 mmHg 90%
    21:00 +10°C° 0 mm 3 mps 763 mmHg 94%
    22:00 +8°C° 0 mm 4 mps 763 mmHg 94%
    23:00 +8°C° 0 mm 4 mps 762 mmHg 95%
    Show more